GW6644 Weather Reports


Display with metric or nautical units.
time (UTC)temp
F
wind
direction
speed
MPH
gust
MPH
rain 1hr
in
rain 24hr
in
rain mn
in
humidity
%
barometer
mb
20260506051313 60 61 5.0 8.0 0.00 0.00 0.00 79 1008.6
20260506050810 61 50 6.0 7.0 0.00 0.00 0.00 79 1008.6
20260506050308 61 69 4.0 6.0 0.00 0.00 0.00 79 1008.7
20260506044758 61 67 6.0 9.0 0.00 0.00 0.00 79 1008.2
20260506044255 61 45 5.0 7.0 0.00 0.00 0.00 78 1008.3
20260506043752 62 60 7.0 9.0 0.00 0.00 0.00 78 1008.3
20260506043250 62 62 3.0 3.0 0.00 0.00 0.00 78 1008.1
20260506042749 62 52 8.0 10.0 0.00 0.00 0.00 78 1008.3
20260506042247 62 51 6.0 9.0 0.00 0.00 0.00 77 1008.4
20260506041745 62 35 7.0 9.0 0.00 0.00 0.00 77 1008.3
20260506041241 62 22 8.0 9.0 0.00 0.00 0.00 77 1008.3
20260506040739 63 73 7.0 10.0 0.00 0.00 0.00 77 1008.4
20260506040236 63 56 5.0 7.0 0.00 0.00 0.00 77 1008.4
20260506035733 63 77 4.0 6.0 0.00 0.00 0.00 77 1008.2
20260506035230 63 13 4.0 8.0 0.00 0.00 0.00 77 1008.0
20260506034726 64 62 1.0 2.0 0.00 0.00 0.00 77 1007.8
20260506034224 64 29 7.0 9.0 0.00 0.00 0.00 77 1007.9
20260506033721 64 29 6.0 8.0 0.00 0.00 0.00 77 1007.9
20260506033218 64 62 5.0 6.0 0.00 0.00 0.00 77 1007.7
20260506032715 64 76 3.0 6.0 0.00 0.00 0.00 76 1007.6
20260506032212 65 34 4.0 9.0 0.00 0.00 0.00 76 1007.4
20260506031708 65 85 5.0 9.0 0.00 0.00 0.00 75 1007.3
20260506031206 66 52 5.0 8.0 0.00 0.00 0.00 75 1007.0
20260506030704 66 54 8.0 10.0 0.00 0.00 0.00 74 1007.2
20260506030201 66 353 4.0 5.0 0.00 0.00 0.00 74 1006.9
20260506025658 66 48 4.0 5.0 0.00 0.00 0.00 73 1007.2
20260506025154 66 59 4.0 7.0 0.00 0.00 0.00 73 1006.9
20260506024651 66 60 7.0 10.0 0.00 0.00 0.00 73 1006.7
20260506024148 67 80 5.0 10.0 0.00 0.00 0.00 72 1006.7
20260506023644 67 53 8.0 10.0 0.00 0.00 0.00 72 1006.7
20260506023141 67 45 2.0 5.0 0.00 0.00 0.00 72 1006.5
20260506022638 67 60 5.0 8.0 0.00 0.00 0.00 72 1006.2
20260506022136 67 49 5.0 10.0 0.00 0.00 0.00 71 1006.5
20260506021634 67 54 5.0 8.0 0.00 0.00 0.00 71 1006.2
20260506021130 68 68 4.0 7.0 0.00 0.00 0.00 70 1006.0
20260506020627 68 50 2.0 2.0 0.00 0.00 0.00 70 1006.0
20260506020125 68 51 6.0 7.0 0.00 0.00 0.00 69 1006.0
20260506015622 68 52 7.0 9.0 0.00 0.00 0.00 69 1006.0
20260506015119 68 82 3.0 5.0 0.00 0.00 0.00 70 1005.8
20260506014617 68 54 3.0 3.0 0.00 0.00 0.00 71 1005.6
20260506014112 68 59 9.0 10.0 0.00 0.00 0.00 70 1005.3
20260506013611 69 61 5.0 8.0 0.00 0.00 0.00 71 1005.3
20260506013107 69 43 9.0 10.0 0.00 0.00 0.00 71 1005.6
20260506012603 70 55 10.0 11.0 0.00 0.00 0.00 70 1005.2
20260506012100 70 56 6.0 8.0 0.00 0.00 0.00 70 1005.1
20260506011558 70 65 2.0 2.0 0.00 0.00 0.00 70 1004.9
20260506011054 71 35 4.0 8.0 0.00 0.00 0.00 70 1004.9
20260506010554 71 31 7.0 10.0 0.00 0.00 0.00 70 1004.8
20260506010050 71 30 3.0 5.0 0.00 0.00 0.00 69 1004.6
20260506005547 72 52 6.0 8.0 0.00 0.00 0.00 69 1004.4
20260506005043 72 74 7.0 9.0 0.00 0.00 0.00 68 1004.1
20260506004540 72 70 7.0 9.0 0.00 0.00 0.00 68 1004.2
20260506004037 72 53 7.0 10.0 0.00 0.00 0.00 68 1004.4
20260506003533 73 84 4.0 5.0 0.00 0.00 0.00 67 1004.2
20260506003030 73 52 5.0 6.0 0.00 0.00 0.00 67 1004.0
20260506002526 73 34 4.0 5.0 0.00 0.00 0.00 67 1003.9
20260506002021 74 44 7.0 11.0 0.00 0.00 0.00 67 1004.2
20260506001518 74 21 3.0 5.0 0.00 0.00 0.00 67 1004.1
20260506001015 75 54 5.0 10.0 0.00 0.00 0.00 65 1003.6
20260506000513 76 59 8.0 11.0 0.00 0.00 0.00 63 1003.7
20260506000010 76 49 1.0 2.0 0.00 0.00 0.00 63 1003.7
20260505235508 76 73 4.0 6.0 0.00 0.00 0.00 62 1003.5
20260505235004 76 87 5.0 8.0 0.00 0.00 0.00 62 1003.5
20260505234502 77 53 3.0 5.0 0.00 0.00 0.00 62 1003.7
20260505233958 77 52 3.0 3.0 0.00 0.00 0.00 61 1003.6
20260505233456 77 70 5.0 8.0 0.00 0.00 0.00 60 1003.6
20260505232953 78 56 6.0 10.0 0.00 0.00 0.00 60 1003.6
20260505232451 78 28 5.0 7.0 0.00 0.00 0.00 60 1003.4
20260505231948 78 63 3.0 5.0 0.00 0.00 0.00 59 1003.6
20260505231445 79 77 1.0 1.0 0.00 0.00 0.00 58 1003.6
20260505230943 79 69 4.0 6.0 0.00 0.00 0.00 58 1003.5
20260505230441 79 43 5.0 7.0 0.00 0.00 0.00 58 1003.1
20260505225937 80 11 4.0 7.0 0.00 0.00 0.00 57 1003.2
20260505225434 81 66 3.0 5.0 0.00 0.00 0.00 58 1003.4
20260505224930 81 95 1.0 2.0 0.00 0.00 0.00 57 1003.2
20260505224427 81 84 4.0 6.0 0.00 0.00 0.00 57 1002.9
20260505223924 82 40 3.0 5.0 0.00 0.00 0.00 57 1002.9
20260505223421 83 64 1.0 1.0 0.00 0.00 0.00 58 1002.9
20260505222917 83 41 5.0 6.0 0.00 0.00 0.00 57 1002.7
20260505222414 84 60 4.0 7.0 0.00 0.00 0.00 55 1002.5
20260505221910 85 96 1.0 1.0 0.00 0.00 0.00 52 1002.7
20260505221407 86 27 3.0 3.0 0.00 0.00 0.00 48 1002.4
20260505220904 86 344 0.0 1.0 0.00 0.00 0.00 47 1002.3
20260505220401 86 50 3.0 6.0 0.00 0.00 0.00 46 1002.5
20260505215859 86 71 3.0 5.0 0.00 0.00 0.00 45 1002.2
20260505215357 86 45 3.0 5.0 0.00 0.00 0.00 44 1002.4
20260505214854 86 32 2.0 3.0 0.00 0.00 0.00 45 1002.3
20260505214352 85 60 3.0 5.0 0.00 0.00 0.00 46 1002.4
20260505213849 87 43 2.0 2.0 0.00 0.00 0.00 45 1002.5
20260505213347 87 82 1.0 2.0 0.00 0.00 0.00 46 1002.4
20260505212842 89 5 6.0 7.0 0.00 0.00 0.00 45 1002.3
20260505212339 91 77 3.0 6.0 0.00 0.00 0.00 44 1002.5
20260505211835 91 191 1.0 2.0 0.00 0.00 0.00 47 1002.5
20260505211334 91 190 0.0 1.0 0.00 0.00 0.00 46 1002.4
20260505210830 92 88 1.0 1.0 0.00 0.00 0.00 45 1002.5
20260505210327 92 177 0.0 1.0 0.00 0.00 0.00 45 1002.7
20260505205823 92 156 0.0 1.0 0.00 0.00 0.00 45 1002.9
20260505205322 92 154 0.0 0.0 0.00 0.00 0.00 46 1002.6
20260505204818 92 158 0.0 0.0 0.00 0.00 0.00 47 1002.9
20260505204316 91 154 1.0 1.0 0.00 0.00 0.00 48 1002.9
20260505203814 92 269 1.0 3.0 0.00 0.00 0.00 47 1003.0
20260505203310 91 192 0.0 2.0 0.00 0.00 0.00 48 1003.0
20260505202806 91 135 1.0 1.0 0.00 0.00 0.00 49 1003.1
20260505202306 91 229 2.0 3.0 0.00 0.00 0.00 47 1003.2
20260505201759 91 175 0.0 0.0 0.00 0.00 0.00 48 1003.1
20260505201257 91 185 1.0 1.0 0.00 0.00 0.00 48 1003.3
20260505200755 91 215 2.0 2.0 0.00 0.00 0.00 46 1003.2
20260505200252 91 163 1.0 1.0 0.00 0.00 0.00 49 1003.2
20260505195747 91 164 1.0 2.0 0.00 0.00 0.00 50 1003.5
20260505195245 90 105 2.0 2.0 0.00 0.00 0.00 50 1003.3
20260505194742 89 176 1.0 1.0 0.00 0.00 0.00 54 1003.2
20260505194238 88 154 2.0 3.0 0.00 0.00 0.00 56 1003.4
20260505193734 89 289 5.0 7.0 0.00 0.00 0.00 55 1003.4
20260505193232 89 206 5.0 6.0 0.00 0.00 0.00 53 1003.3
20260505192730 89 279 3.0 5.0 0.00 0.00 0.00 55 1003.2
20260505192227 88 196 2.0 2.0 0.00 0.00 0.00 57 1003.4
20260505191725 88 200 5.0 8.0 0.00 0.00 0.00 55 1003.3
20260505191224 87 198 2.0 3.0 0.00 0.00 0.00 56 1003.2
20260505190719 87 193 3.0 3.0 0.00 0.00 0.00 57 1003.2
20260505190219 87 211 5.0 10.0 0.00 0.00 0.00 56 1003.2
20260505185716 87 214 2.0 2.0 0.00 0.00 0.00 58 1003.3
20260505185212 87 243 3.0 5.0 0.00 0.00 0.00 59 1003.3
20260505184708 86 256 1.0 3.0 0.00 0.00 0.00 59 1003.1
20260505184206 85 234 3.0 5.0 0.00 0.00 0.00 59 1003.3
20260505183703 85 159 1.0 1.0 0.00 0.00 0.00 60 1003.3
20260505183200 85 202 2.0 2.0 0.00 0.00 0.00 61 1003.5
20260505182656 85 205 3.0 5.0 0.00 0.00 0.00 62 1003.4
20260505182154 84 214 2.0 2.0 0.00 0.00 0.00 63 1003.6
20260505181650 84 227 3.0 5.0 0.00 0.00 0.00 64 1003.6
20260505181148 84 268 3.0 5.0 0.00 0.00 0.00 64 1003.5
20260505180643 84 100 2.0 2.0 0.00 0.00 0.00 64 1003.6
20260505180141 84 180 1.0 2.0 0.00 0.00 0.00 66 1003.6
20260505175637 84 188 3.0 5.0 0.00 0.00 0.00 64 1003.7
20260505175133 83 180 1.0 1.0 0.00 0.00 0.00 66 1003.6
20260505174630 82 198 4.0 7.0 0.00 0.00 0.00 66 1003.5
20260505174126 82 237 7.0 9.0 0.00 0.00 0.00 65 1003.4
20260505173623 82 285 2.0 2.0 0.00 0.00 0.00 67 1003.4
20260505173120 82 225 3.0 8.0 0.00 0.00 0.00 67 1003.4
20260505172618 82 231 6.0 9.0 0.00 0.00 0.00 66 1003.7
20260505172114 83 298 7.0 13.0 0.00 0.00 0.00 65 1003.7
20260505171608 84 162 1.0 2.0 0.00 0.00 0.00 65 1003.3
20260505171106 83 251 2.0 2.0 0.00 0.00 0.00 67 1003.5
20260505170603 82 168 3.0 5.0 0.00 0.00 0.00 68 1003.5
20260505170059 82 192 4.0 6.0 0.00 0.00 0.00 66 1003.6
20260505165554 83 124 2.0 3.0 0.00 0.00 0.00 66 1003.6
20260505165050 82 227 3.0 7.0 0.00 0.00 0.00 67 1003.6
20260505164546 82 232 5.0 7.0 0.00 0.00 0.00 67 1003.5
20260505164044 82 210 8.0 11.0 0.00 0.00 0.00 66 1003.3
20260505163543 82 226 6.0 7.0 0.00 0.00 0.00 68 1003.6
20260505163039 82 217 8.0 11.0 0.00 0.00 0.00 67 1003.4
20260505162538 81 239 6.0 10.0 0.00 0.00 0.00 68 1003.4
20260505162035 80 222 7.0 9.0 0.00 0.00 0.00 70 1003.5
20260505161532 80 209 2.0 2.0 0.00 0.00 0.00 71 1003.7
20260505161029 80 227 7.0 10.0 0.00 0.00 0.00 71 1003.4
20260505160527 79 154 6.0 9.0 0.00 0.00 0.00 72 1003.5
20260505153003 77 228 2.0 3.0 0.00 0.00 0.00 76 1003.2
20260505152500 76 44 6.0 9.0 0.00 0.00 0.00 77 1003.1
20260505151955 75 217 4.0 7.0 0.00 0.00 0.00 77 1003.1
20260505151451 76 202 8.0 13.0 0.00 0.00 0.00 77 1003.3
20260505150949 75 122 2.0 3.0 0.00 0.00 0.00 78 1003.2
20260505150445 75 274 6.0 8.0 0.00 0.00 0.00 78 1003.1
20260505140415 73 132 3.0 5.0 0.00 0.00 0.00 81 1003.1
20260505124829 70 203 3.0 5.0 0.00 0.00 0.00 86 1002.7
20260505124326 70 212 5.0 8.0 0.00 0.00 0.00 86 1002.6
20260505123822 70 284 7.0 10.0 0.00 0.00 0.00 86 1002.6
20260505123319 70 191 4.0 6.0 0.00 0.00 0.00 86 1002.5
20260505122815 70 242 5.0 8.0 0.00 0.00 0.00 86 1002.3
20260505122312 70 243 2.0 2.0 0.00 0.00 0.00 87 1002.2
20260505121809 70 225 7.0 9.0 0.00 0.00 0.00 87 1002.4
20260505121306 70 205 5.0 7.0 0.00 0.00 0.00 87 1002.2
20260505120802 70 204 4.0 7.0 0.00 0.00 0.00 87 1002.4
20260505120258 70 213 4.0 5.0 0.00 0.00 0.00 87 1002.4
20260505115756 70 251 2.0 2.0 0.00 0.00 0.00 87 1002.0
20260505115254 70 228 7.0 10.0 0.00 0.00 0.00 87 1002.2
20260505114751 70 282 4.0 5.0 0.00 0.00 0.00 87 1002.2
20260505114247 69 257 5.0 6.0 0.00 0.00 0.00 87 1002.2
20260505113744 69 242 3.0 6.0 0.00 0.00 0.00 87 1002.1
20260505113241 69 233 5.0 8.0 0.00 0.00 0.00 87 1002.1
20260505112737 69 189 6.0 8.0 0.00 0.00 0.00 87 1002.2
20260505112235 69 213 5.0 6.0 0.00 0.00 0.00 88 1002.0
20260505111735 69 186 5.0 7.0 0.00 0.00 0.00 88 1002.3
20260505111231 69 190 4.0 6.0 0.00 0.00 0.00 88 1002.0
20260505110727 69 215 6.0 9.0 0.00 0.00 0.00 88 1002.2
20260505110225 69 268 3.0 7.0 0.00 0.00 0.00 88 1002.1
20260505102159 69 202 2.0 3.0 0.00 0.00 0.00 88 1002.0
20260505101659 69 211 5.0 7.0 0.00 0.00 0.00 88 1002.2
20260505101154 69 205 3.0 3.0 0.00 0.00 0.00 88 1002.0
20260505100650 69 203 4.0 6.0 0.00 0.00 0.00 88 1002.1
20260505100148 69 210 6.0 8.0 0.00 0.00 0.00 88 1002.1
20260505095643 69 207 7.0 11.0 0.00 0.00 0.00 88 1002.1
20260505095141 69 197 4.0 5.0 0.00 0.00 0.00 87 1002.2
20260505094637 69 242 8.0 11.0 0.00 0.00 0.00 87 1002.2
20260505094133 69 197 7.0 10.0 0.00 0.00 0.00 87 1002.1
20260505093630 69 182 6.0 8.0 0.00 0.00 0.00 87 1001.9
20260505093127 69 191 7.0 9.0 0.00 0.00 0.00 87 1002.0
20260505092624 69 219 6.0 10.0 0.00 0.00 0.00 87 1002.1
20260505092123 69 165 4.0 6.0 0.00 0.00 0.00 86 1002.2
20260505091619 70 216 6.0 8.0 0.00 0.00 0.00 86 1002.4
20260505091118 70 246 5.0 7.0 0.00 0.00 0.00 86 1002.1
20260505090615 70 203 3.0 3.0 0.00 0.00 0.00 86 1002.3
20260505090113 70 239 5.0 8.0 0.00 0.00 0.00 85 1002.2
20260505085610 70 219 6.0 10.0 0.00 0.00 0.00 85 1002.4
20260505085109 70 207 6.0 9.0 0.00 0.00 0.00 85 1002.7
20260505084606 70 248 4.0 5.0 0.00 0.00 0.00 84 1002.5
20260505084104 70 212 5.0 7.0 0.00 0.00 0.00 84 1002.4
20260505083601 71 239 8.0 13.0 0.00 0.00 0.00 84 1002.7
20260505083057 71 231 2.0 2.0 0.00 0.00 0.00 83 1002.5
20260505082553 71 223 6.0 7.0 0.00 0.00 0.00 83 1002.4
20260505082051 71 172 4.0 6.0 0.00 0.00 0.00 82 1002.6
20260505081547 71 205 6.0 9.0 0.00 0.00 0.00 82 1002.3
20260505081044 71 252 10.0 14.0 0.00 0.00 0.00 82 1002.3
20260505080540 71 189 4.0 6.0 0.00 0.00 0.00 81 1002.2
20260505080037 71 217 11.0 15.0 0.00 0.00 0.00 81 1002.4
20260505075533 71 202 4.0 6.0 0.00 0.00 0.00 80 1002.4
20260505075030 71 190 8.0 11.0 0.00 0.00 0.00 80 1002.5
20260505074527 72 213 8.0 9.0 0.00 0.00 0.00 79 1002.7
20260505074024 72 322 12.0 18.0 0.00 0.00 0.00 79 1002.5
20260505073521 72 277 4.0 5.0 0.00 0.00 0.00 78 1003.0
20260505073020 72 231 6.0 9.0 0.00 0.00 0.00 78 1003.1
20260505072515 72 229 6.0 8.0 0.00 0.00 0.00 78 1002.7
20260505072011 72 200 5.0 7.0 0.00 0.00 0.00 77 1003.2
20260505071507 72 234 8.0 10.0 0.00 0.00 0.00 77 1003.2
20260505071005 72 186 10.0 15.0 0.00 0.00 0.00 77 1003.3
20260505070502 72 260 9.0 13.0 0.00 0.00 0.00 77 1003.5
20260505065958 72 204 7.0 10.0 0.00 0.00 0.00 76 1003.3
20260505065454 72 232 7.0 13.0 0.00 0.00 0.00 76 1003.4
20260505064951 72 203 6.0 8.0 0.00 0.00 0.00 76 1003.7
20260505064448 72 244 6.0 10.0 0.00 0.00 0.00 75 1003.7
20260505063946 73 202 5.0 8.0 0.00 0.00 0.00 75 1003.7
20260505063442 73 184 6.0 8.0 0.00 0.00 0.00 75 1003.9
20260505062939 73 307 5.0 10.0 0.00 0.00 0.00 74 1004.0
20260505062436 73 229 7.0 9.0 0.00 0.00 0.00 74 1003.8
20260505061933 73 212 6.0 8.0 0.00 0.00 0.00 74 1003.9
20260505061431 73 278 9.0 11.0 0.00 0.00 0.00 74 1004.0
20260505060928 73 216 7.0 11.0 0.00 0.00 0.00 74 1003.9
20260505060425 73 198 10.0 16.0 0.00 0.00 0.00 73 1004.1
20260505055921 74 211 7.0 8.0 0.00 0.00 0.00 73 1003.9
20260505055418 74 226 6.0 8.0 0.00 0.00 0.00 73 1003.9